N7BDR Weather Reports


time (UTC)temp
C
wind
direction
speed
KPH
gust
KPH
rain 1hr
cm
rain 24hr
cm
rain mn
cm
humidity
%
barometer
mb
20260508235807 25 278 3.2 16.1 0.00 0.00 0.00 20 1008.4
20260508235248 25 336 4.8 16.1 0.00 0.00 0.00 19 1008.4
20260508234757 25 307 4.8 16.1 0.00 0.00 0.00 19 1008.4
20260508234247 25 333 3.2 12.9 0.00 0.00 0.00 19 1008.5
20260508233746 25 339 1.6 12.9 0.00 0.00 0.00 19 1008.4
20260508231936 25 35 1.6 11.3 0.00 0.00 0.00 18 1008.6
20260508231422 25 255 1.6 11.3 0.00 0.00 0.00 19 1008.6
20260508230907 25 340 3.2 11.3 0.00 0.00 0.00 19 1008.8
20260508230411 25 325 3.2 11.3 0.00 0.00 0.00 19 1008.8
20260508225921 25 315 3.2 12.9 0.00 0.00 0.00 20 1008.9
20260508225420 25 321 4.8 12.9 0.00 0.00 0.00 19 1009.0
20260508224904 25 348 4.8 17.7 0.00 0.00 0.00 20 1009.1
20260508223739 25 343 6.4 17.7 0.00 0.00 0.00 19 1009.3
20260508223240 25 300 8.0 17.7 0.00 0.00 0.00 20 1009.5
20260508222748 24 315 8.0 16.1 0.00 0.00 0.00 19 1009.5
20260508222254 25 354 8.0 16.1 0.00 0.00 0.00 20 1009.5
20260508221757 24 339 6.4 16.1 0.00 0.00 0.00 20 1009.6
20260508221303 24 317 6.4 17.7 0.00 0.00 0.00 20 1009.7
20260508220744 24 352 6.4 17.7 0.00 0.00 0.00 20 1009.9
20260508220243 24 336 8.0 17.7 0.00 0.00 0.00 20 1009.8
20260508215724 24 345 8.0 17.7 0.00 0.00 0.00 21 1009.8
20260508215207 24 341 8.0 20.9 0.00 0.00 0.00 21 1009.8
20260508214648 24 0 6.4 20.9 0.00 0.00 0.00 20 1010.0
20260508214141 24 343 6.4 20.9 0.00 0.00 0.00 21 1010.0
20260508213648 23 351 8.0 20.9 0.00 0.00 0.00 21 1010.1
20260508213131 24 328 8.0 19.3 0.00 0.00 0.00 20 1010.1
20260508212626 24 95 6.4 17.7 0.00 0.00 0.00 21 1010.2
20260508212129 24 342 4.8 17.7 0.00 0.00 0.00 21 1010.3
20260508211635 24 357 4.8 17.7 0.00 0.00 0.00 20 1010.3
20260508211141 24 313 6.4 16.1 0.00 0.00 0.00 22 1010.3
20260508210623 23 322 8.0 20.9 0.00 0.00 0.00 21 1010.4
20260508210132 23 338 8.0 20.9 0.00 0.00 0.00 20 1010.5
20260508205630 23 4 8.0 20.9 0.00 0.00 0.00 20 1010.5
20260508205112 23 12 8.0 20.9 0.00 0.00 0.00 20 1010.7
20260508203939 23 342 6.4 19.3 0.00 0.00 0.00 22 1010.9
20260508202754 23 30 4.8 20.9 0.00 0.00 0.00 22 1011.0
20260508202238 23 323 8.0 20.9 0.00 0.00 0.00 21 1011.0
20260508201746 23 341 8.0 20.9 0.00 0.00 0.00 20 1011.1
20260508195939 23 344 8.0 19.3 0.00 0.00 0.00 22 1011.2
20260508195424 22 336 6.4 19.3 0.00 0.00 0.00 22 1011.2
20260508194927 23 347 4.8 17.7 0.00 0.00 0.00 22 1011.3
20260508194432 23 324 6.4 16.1 0.00 0.00 0.00 23 1011.3
20260508193935 23 329 6.4 16.1 0.00 0.00 0.00 22 1011.4
20260508193425 23 339 6.4 16.1 0.00 0.00 0.00 22 1011.3
20260508192926 23 352 6.4 16.1 0.00 0.00 0.00 22 1011.3
20260508192418 23 343 6.4 14.5 0.00 0.00 0.00 23 1011.4
20260508191925 23 331 3.2 14.5 0.00 0.00 0.00 23 1011.4
20260508191426 23 322 3.2 17.7 0.00 0.00 0.00 23 1011.4
20260508190258 22 334 6.4 17.7 0.00 0.00 0.00 24 1011.5
20260508185755 22 325 3.2 17.7 0.00 0.00 0.00 23 1011.6
20260508184034 22 346 4.8 20.9 0.00 0.00 0.00 24 1011.8
20260508183536 22 353 4.8 24.1 0.00 0.00 0.00 24 1011.8
20260508183042 21 358 6.4 24.1 0.00 0.00 0.00 25 1011.9
20260508182551 22 315 4.8 24.1 0.00 0.00 0.00 26 1012.0
20260508182055 22 345 3.2 24.1 0.00 0.00 0.00 26 1012.0
20260508181604 22 32 3.2 24.1 0.00 0.00 0.00 25 1012.0
20260508180420 22 341 4.8 17.7 0.00 0.00 0.00 26 1012.0
20260508175919 22 308 3.2 16.1 0.00 0.00 0.00 26 1012.0
20260508175401 22 304 3.2 16.1 0.00 0.00 0.00 26 1012.2
20260508174842 22 317 3.2 20.9 0.00 0.00 0.00 27 1012.2
20260508174329 21 334 3.2 20.9 0.00 0.00 0.00 26 1012.3
20260508173825 21 348 4.8 20.9 0.00 0.00 0.00 26 1012.3
20260508173328 21 354 6.4 20.9 0.00 0.00 0.00 27 1012.2
20260508172831 21 332 6.4 20.9 0.00 0.00 0.00 27 1012.2
20260508172324 21 299 8.0 20.9 0.00 0.00 0.00 29 1012.2
20260508171821 21 313 8.0 17.7 0.00 0.00 0.00 28 1012.1
20260508171311 21 341 4.8 17.7 0.00 0.00 0.00 28 1012.1
20260508170752 21 315 6.4 17.7 0.00 0.00 0.00 31 1012.1
20260508170256 21 342 6.4 17.7 0.00 0.00 0.00 30 1012.1
20260508165802 21 348 6.4 17.7 0.00 0.00 0.00 32 1012.1
20260508164042 20 358 6.4 12.9 0.00 0.00 0.00 33 1011.9
20260508163541 21 331 4.8 11.3 0.00 0.00 0.00 33 1011.9
20260508163051 21 346 4.8 12.9 0.00 0.00 0.00 36 1011.8
20260508162546 20 346 3.2 12.9 0.00 0.00 0.00 37 1011.8
20260508162047 20 322 3.2 12.9 0.00 0.00 0.00 37 1011.8
20260508160924 20 323 3.2 8.0 0.00 0.00 0.00 38 1011.8
20260508160412 20 0 1.6 8.0 0.00 0.00 0.00 37 1011.9
20260508155858 19 344 3.2 9.7 0.00 0.00 0.00 36 1011.9
20260508155344 19 336 1.6 9.7 0.00 0.00 0.00 36 1011.9
20260508154825 19 347 3.2 9.7 0.00 0.00 0.00 38 1011.9
20260508153015 18 328 0.0 3.2 0.00 0.00 0.00 40 1011.9
20260508151845 18 351 0.0 3.2 0.00 0.00 0.00 41 1011.8
20260508151339 18 337 0.0 0.0 0.00 0.00 0.00 42 1011.8
20260508150209 18 343 0.0 0.0 0.00 0.00 0.00 43 1011.8
20260508145719 18 303 0.0 0.0 0.00 0.00 0.00 44 1011.7
20260508145224 17 336 0.0 0.0 0.00 0.00 0.00 45 1011.7
20260508144732 17 339 0.0 0.0 0.00 0.00 0.00 46 1011.7
20260508144215 17 328 0.0 0.0 0.00 0.00 0.00 49 1011.7
20260508143708 16 332 0.0 0.0 0.00 0.00 0.00 49 1011.6
20260508143200 16 312 0.0 0.0 0.00 0.00 0.00 50 1011.6
20260508142026 16 51 0.0 0.0 0.00 0.00 0.00 52 1011.5
20260508140920 15 326 0.0 0.0 0.00 0.00 0.00 54 1011.4
20260508140429 14 339 0.0 0.0 0.00 0.00 0.00 54 1011.4
20260508135305 13 70 0.0 0.0 0.00 0.00 0.00 57 1011.4
20260508134805 13 70 0.0 0.0 0.00 0.00 0.00 58 1011.3
20260508134246 12 320 0.0 0.0 0.00 0.00 0.00 60 1011.3
20260508133749 12 278 0.0 0.0 0.00 0.00 0.00 62 1011.3
20260508133253 11 277 0.0 0.0 0.00 0.00 0.00 63 1011.2
20260508132734 10 277 0.0 0.0 0.00 0.00 0.00 64 1011.2
20260508132222 10 277 0.0 0.0 0.00 0.00 0.00 65 1011.2
20260508131721 10 277 0.0 0.0 0.00 0.00 0.00 65 1011.1
20260508131229 10 277 0.0 0.0 0.00 0.00 0.00 65 1011.1
20260508130727 10 277 0.0 0.0 0.00 0.00 0.00 65 1010.9
20260508130221 9 277 0.0 0.0 0.00 0.00 0.00 65 1010.9
20260508125724 9 277 0.0 0.0 0.00 0.00 0.00 65 1010.9
20260508125217 8 277 0.0 0.0 0.00 0.00 0.00 66 1010.8
20260508124705 8 279 0.0 0.0 0.00 0.00 0.00 67 1010.7
20260508123550 8 279 0.0 0.0 0.00 0.00 0.00 67 1010.5
20260508123058 8 279 0.0 0.0 0.00 0.00 0.00 67 1010.5
20260508122605 8 279 0.0 0.0 0.00 0.00 0.00 67 1010.4
20260508122051 8 279 0.0 0.0 0.00 0.00 0.00 68 1010.4
20260508121538 8 279 0.0 0.0 0.00 0.00 0.00 67 1010.4
20260508121021 8 279 0.0 0.0 0.00 0.00 0.00 67 1010.4
20260508120509 8 279 0.0 0.0 0.00 0.00 0.00 67 1010.4
20260508115343 8 279 0.0 0.0 0.00 0.00 0.00 66 1010.3
20260508114829 8 279 0.0 0.0 0.00 0.00 0.00 66 1010.3
20260508114319 9 279 0.0 0.0 0.00 0.00 0.00 65 1010.3
20260508113810 9 279 0.0 0.0 0.00 0.00 0.00 65 1010.2
20260508113305 9 279 0.0 0.0 0.00 0.00 0.00 65 1010.2
20260508112803 9 279 0.0 0.0 0.00 0.00 0.00 66 1010.2
20260508112310 9 279 0.0 0.0 0.00 0.00 0.00 66 1010.2
20260508111800 9 280 0.0 0.0 0.00 0.00 0.00 65 1010.2
20260508111302 9 280 0.0 0.0 0.00 0.00 0.00 65 1010.3
20260508110810 9 279 0.0 0.0 0.00 0.00 0.00 66 1010.2
20260508110303 9 279 0.0 0.0 0.00 0.00 0.00 67 1010.0
20260508105806 8 279 0.0 0.0 0.00 0.00 0.00 67 1010.1
20260508105251 8 279 0.0 0.0 0.00 0.00 0.00 67 1010.2
20260508104758 8 279 0.0 0.0 0.00 0.00 0.00 67 1010.1
20260508104257 8 279 0.0 0.0 0.00 0.00 0.00 66 1010.1
20260508103743 9 279 0.0 0.0 0.00 0.00 0.00 66 1010.1
20260508102629 9 279 0.0 0.0 0.00 0.00 0.00 64 1009.9
20260508102130 9 279 0.0 0.0 0.00 0.00 0.00 64 1009.8
20260508101632 9 279 0.0 0.0 0.00 0.00 0.00 64 1009.8
20260508101131 9 279 0.0 0.0 0.00 0.00 0.00 64 1009.7
20260508100641 9 279 0.0 0.0 0.00 0.00 0.00 63 1009.7
20260508100147 10 279 0.0 0.0 0.00 0.00 0.00 63 1009.7
20260508095641 10 279 0.0 0.0 0.00 0.00 0.00 63 1009.7
20260508095123 10 279 0.0 0.0 0.00 0.00 0.00 63 1009.6
20260508094610 10 279 0.0 0.0 0.00 0.00 0.00 62 1009.6
20260508094052 10 279 0.0 0.0 0.00 0.00 0.00 62 1009.7
20260508093539 10 279 0.0 0.0 0.00 0.00 0.00 61 1009.7
20260508093028 10 279 0.0 0.0 0.00 0.00 0.00 62 1009.6
20260508092529 10 279 0.0 0.0 0.00 0.00 0.00 61 1009.5
20260508092038 10 279 0.0 0.0 0.00 0.00 0.00 61 1009.3
20260508091534 10 279 0.0 0.0 0.00 0.00 0.00 61 1009.4
20260508091042 10 279 0.0 0.0 0.00 0.00 0.00 60 1009.3
20260508090535 10 279 0.0 0.0 0.00 0.00 0.00 60 1009.3
20260508090018 10 279 0.0 0.0 0.00 0.00 0.00 60 1009.3
20260508085502 10 279 0.0 0.0 0.00 0.00 0.00 59 1009.3
20260508084944 10 279 0.0 0.0 0.00 0.00 0.00 59 1009.3
20260508084435 10 279 0.0 0.0 0.00 0.00 0.00 59 1009.3
20260508082045 11 279 0.0 0.0 0.00 0.00 0.00 56 1009.5
20260508081528 11 279 0.0 0.0 0.00 0.00 0.00 55 1009.3
20260508081015 11 279 0.0 0.0 0.00 0.00 0.00 56 1009.3
20260508080513 11 279 0.0 0.0 0.00 0.00 0.00 57 1009.4
20260508080008 11 279 0.0 0.0 0.00 0.00 0.00 56 1009.3
20260508075516 11 279 0.0 0.0 0.00 0.00 0.00 55 1009.3
20260508075011 11 279 0.0 0.0 0.00 0.00 0.00 58 1009.4
20260508074519 11 279 0.0 0.0 0.00 0.00 0.00 57 1009.4
20260508074013 11 279 0.0 0.0 0.00 0.00 0.00 56 1009.4
20260508073458 11 279 0.0 0.0 0.00 0.00 0.00 54 1009.3
20260508072943 12 279 0.0 0.0 0.00 0.00 0.00 54 1009.3
20260508071201 11 268 0.0 0.0 0.00 0.00 0.00 54 1009.2
20260508070046 12 267 0.0 0.0 0.00 0.00 0.00 53 1009.1
20260508064908 12 267 0.0 0.0 0.00 0.00 0.00 52 1009.2
20260508064356 12 267 0.0 0.0 0.00 0.00 0.00 51 1009.0
20260508063840 12 267 0.0 0.0 0.00 0.00 0.00 51 1009.1
20260508063330 12 267 0.0 0.0 0.00 0.00 0.00 50 1009.1
20260508062812 13 267 0.0 0.0 0.00 0.00 0.00 50 1009.1
20260508062306 13 267 0.0 0.0 0.00 0.00 0.00 50 1009.2
20260508061809 13 267 0.0 0.0 0.00 0.00 0.00 50 1009.2
20260508060640 13 267 0.0 0.0 0.00 0.00 0.00 50 1009.2
20260508060146 13 267 0.0 0.0 0.00 0.00 0.00 50 1009.3
20260508055650 13 266 0.0 0.0 0.00 0.00 0.00 49 1009.1
20260508055146 13 286 0.0 0.0 0.00 0.00 0.00 49 1009.1
20260508054653 13 286 0.0 0.0 0.00 0.00 0.00 49 1009.1
20260508054152 13 292 0.0 0.0 0.00 0.00 0.00 50 1009.0
20260508053645 13 298 0.0 0.0 0.00 0.00 0.00 50 1009.0
20260508053154 13 298 0.0 0.0 0.00 0.00 0.00 49 1009.0
20260508052656 13 298 0.0 0.0 0.00 0.00 0.00 50 1008.9
20260508051526 14 300 0.0 0.0 0.00 0.00 0.00 48 1008.8
20260508051031 14 288 0.0 0.0 0.00 0.00 0.00 47 1008.8
20260508045911 15 288 0.0 0.0 0.00 0.00 0.00 47 1008.8
20260508045410 15 321 0.0 0.0 0.00 0.00 0.00 46 1008.8
20260508044235 15 307 0.0 0.0 0.00 0.00 0.00 44 1008.7
20260508043716 15 316 0.0 0.0 0.00 0.00 0.00 43 1008.7
20260508043207 15 316 0.0 0.0 0.00 0.00 0.00 44 1008.8
20260508042715 15 280 0.0 0.0 0.00 0.00 0.00 43 1008.7
20260508042158 16 280 0.0 0.0 0.00 0.00 0.00 43 1008.6
20260508041707 16 279 0.0 0.0 0.00 0.00 0.00 42 1008.6
20260508041157 16 272 0.0 0.0 0.00 0.00 0.00 40 1008.5
20260508040642 17 268 0.0 0.0 0.00 0.00 0.00 39 1008.4
20260508040130 17 267 0.0 1.6 0.00 0.00 0.00 38 1008.5
20260508035620 17 268 0.0 1.6 0.00 0.00 0.00 38 1008.4
20260508035119 17 267 0.0 1.6 0.00 0.00 0.00 38 1008.4
20260508034625 17 268 0.0 1.6 0.00 0.00 0.00 38 1008.4
20260508034117 17 268 0.0 0.0 0.00 0.00 0.00 37 1008.4
20260508033625 17 268 0.0 0.0 0.00 0.00 0.00 37 1008.3
20260508033115 17 265 0.0 0.0 0.00 0.00 0.00 37 1008.3
20260508032615 18 265 0.0 0.0 0.00 0.00 0.00 36 1008.3
20260508032104 18 262 0.0 1.6 0.00 0.00 0.00 35 1008.3
20260508031604 18 281 0.0 0.0 0.00 0.00 0.00 35 1008.2
20260508030434 18 293 0.0 0.0 0.00 0.00 0.00 35 1008.1
20260508025300 18 309 0.0 0.0 0.00 0.00 0.00 35 1008.1
20260508024804 19 321 0.0 0.0 0.00 0.00 0.00 33 1008.1
20260508024311 20 321 0.0 0.0 0.00 0.00 0.00 33 1008.1
20260508023812 20 322 0.0 0.0 0.00 0.00 0.00 30 1008.0
20260508022630 21 322 0.0 0.0 0.00 0.00 0.00 27 1008.0
20260508021514 22 322 0.0 0.0 0.00 0.00 0.00 25 1008.0
20260508021010 22 322 0.0 0.0 0.00 0.00 0.00 26 1008.0
20260508020500 22 322 0.0 3.2 0.00 0.00 0.00 25 1007.9
20260508015955 22 322 0.0 3.2 0.00 0.00 0.00 24 1007.9
20260508015454 23 326 0.0 4.8 0.00 0.00 0.00 24 1007.9
20260508014956 23 334 0.0 4.8 0.00 0.00 0.00 24 1007.8
20260508014448 23 325 0.0 4.8 0.00 0.00 0.00 23 1007.9
20260508013939 23 322 0.0 4.8 0.00 0.00 0.00 23 1007.9
20260508013424 23 317 1.6 4.8 0.00 0.00 0.00 23 1007.9
20260508012306 23 332 0.0 3.2 0.00 0.00 0.00 23 1008.0
20260508011758 23 322 0.0 4.8 0.00 0.00 0.00 23 1007.9
20260508010629 23 312 0.0 0.0 0.00 0.00 0.00 23 1008.0
20260508005509 23 331 0.0 4.8 0.00 0.00 0.00 22 1008.0
20260508003741 23 327 0.0 3.2 0.00 0.00 0.00 24 1008.2
20260508003238 23 325 0.0 0.0 0.00 0.00 0.00 24 1008.2
20260508002133 23 322 0.0 6.4 0.00 0.00 0.00 23 1008.5
20260508001640 23 333 0.0 1.6 0.00 0.00 0.00 22 1008.4
20260508001130 23 299 0.0 0.0 0.00 0.00 0.00 23 1008.5
20260508000625 23 324 0.0 0.0 0.00 0.00 0.00 23 1008.5